Tracking 28790 objects as of 19-Apr-2024
HD Live streaming from Space Station
objects crossing your sky now

BREEZE-M DEB

Track BREEZE-M DEB now!


NORAD ID: 41548
Int'l Code: 2015-075J
Perigee: 33,755.8 km
Apogee: 36,770.9 km
Inclination: 6.9 °
Period: 1,409.1 minutes
Semi major axis: 41634 km
RCS: Unknown
Launch date: December 13, 2015
Source: Commonwealth of Independent States (former USSR) (CIS)
Launch site: TYURATAM MISSILE AND SPACE COMPLEX (TTMTR)

Note: This is SATELLITE DEBRIS
Your satellite tracking list
Your tracking list is empty




NASA's NSSDC Master Catalog

Two Line Element Set (TLE):
1 41548U 15075J   24110.01289468 -.00000085  00000-0  00000+0 0  9999
2 41548   6.8953  63.5071 0362095 112.1190 251.7702  1.02193994 30776
Source of the keplerian elements: AFSPC